Home > Weather > Fushun > Past weeks

Flag for China Past Weather in Fushun, Liaoning, China — Yesterday and Last 2 Weeks

Now
70 °F

Overcast.


Feels Like: 70 °F
Forecast: 67 / 81 °F
Wind: 6 mph from Southeast

Location: Shenyang / Taoxian

Current Time: Jun 29, 2016 at 10:47:15 PM

Latest Report: Jun 29, 2016 at 10:00 PM


Visibility: N/A

Pressure: 29.65 "Hg

Humidity: 83%

Dew Point: 64 °F

Location of FushunLocation

Past Weather in Fushun — Graph

°F

Fushun Temperature Yesterday

Maximum temperature yesterday: 82 °F (at 10:30 AM)
Minimum temperature yesterday: 68 °F (at 3:30 AM)
Average temperature yesterday: 75 °F

High & Low Weather Summary for the Past Weeks

 TemperatureHumidityPressure
High86 °F (Jun 26, 12:30 PM)100% (Jun 15, 2:30 AM)29.80 "Hg (Jun 15, 2:30 AM)
Low59 °F (Jun 16, 3:30 AM)31% (Jun 26, 1:00 PM)29.42 "Hg (Jun 16, 3:30 PM)
Average72 °F73%29.64 "Hg
* Reported Jun 14 9:00 PM — Jun 29 9:30 PM, Fushun, Weather by CustomWeather, © 2016

Note: Actual official high and low records may vary slightly from our data, if they occured in-between our weather recording intervals... More about our weather records

Advertising

Fushun Weather History for the Previous 24 Hours

Scroll right to see more
 ConditionsComfort  
Time TempWeatherWind HumidityBarometerVisibility
9:30 PM
Wed, Jun 29
70 °FOvercast.3 mph83%29.68 "HgN/A
9:00 PM70 °FOvercast.3 mph83%29.68 "HgN/A
8:30 PM68 °FOvercast.3 mph88%29.68 "HgN/A
8:00 PM68 °FOvercast.1 mph94%29.68 "HgN/A
7:30 PM68 °FOvercast.3 mph88%29.68 "HgN/A
7:00 PM68 °FOvercast.3 mph94%29.68 "HgN/A
6:30 PM68 °FOvercast.3 mph94%29.68 "HgN/A
6:00 PM68 °FOvercast.3 mph94%29.68 "HgN/A
5:30 PM68 °FLight rain. Overcast.3 mph94%29.68 "HgN/A
5:00 PM70 °FSprinkles. Partly sunny.3 mph88%29.68 "Hg5 mi
4:30 PM70 °FSprinkles. Partly sunny.6 mph88%29.68 "Hg4 mi
4:00 PM70 °FLight rain. Overcast.3 mph88%29.68 "Hg4 mi
3:30 PM70 °FLight rain. Overcast.3 mph88%29.68 "Hg4 mi
3:00 PM72 °FLight rain. Overcast.3 mph83%29.68 "HgN/A
2:30 PM70 °FLight rain. Overcast.3 mph88%29.68 "Hg4 mi
2:00 PM72 °FOvercast.6 mph78%29.71 "HgN/A
1:30 PM72 °FLight rain. Overcast.3 mph78%29.71 "Hg4 mi
1:00 PM72 °FLight rain. Overcast.3 mph83%29.71 "Hg4 mi
12:30 PM70 °FLight rain. Overcast.3 mph83%29.71 "Hg4 mi
12:00 PM70 °FLight rain. Overcast.3 mph83%29.74 "Hg4 mi
11:30 AM72 °FLight rain. Overcast.3 mph78%29.74 "Hg4 mi
11:00 AM72 °FLight rain. Overcast.6 mph78%29.74 "Hg4 mi
10:30 AM73 °FLight rain. Overcast.6 mph74%29.74 "Hg4 mi
10:00 AM73 °FOvercast.6 mph69%29.74 "HgN/A
9:30 AM73 °FPartly sunny.6 mph69%29.74 "HgN/A
9:00 AM72 °FPartly sunny.6 mph69%29.74 "HgN/A
8:30 AM73 °FPassing clouds.6 mph65%29.77 "HgN/A
8:00 AM73 °FPassing clouds.6 mph65%29.77 "HgN/A
7:30 AM72 °FPassing clouds.6 mph69%29.77 "HgN/A
7:00 AM73 °FPassing clouds.6 mph65%29.77 "HgN/A
6:30 AM70 °FClear.3 mph73%29.77 "Hg5 mi
6:00 AM70 °FClear.3 mph73%29.74 "Hg5 mi
5:30 AM68 °FClear.3 mph78%29.74 "Hg5 mi
5:00 AM68 °FClear.3 mph73%29.74 "Hg5 mi
4:00 AM68 °FPassing clouds.3 mph73%29.74 "HgN/A
3:30 AM68 °FPassing clouds.3 mph73%29.74 "HgN/A
3:00 AM68 °FPassing clouds.3 mph73%29.74 "HgN/A
2:30 AM68 °FClear.3 mph73%29.74 "Hg10 mi
2:00 AM68 °FClear.3 mph78%29.74 "Hg10 mi
1:30 AM70 °FPassing clouds.3 mph73%29.77 "HgN/A
1:00 AM70 °FClear.3 mph78%29.77 "Hg10 mi
12:30 AM70 °FPassing clouds.3 mph83%29.77 "HgN/A
12:00 AM70 °FClear.3 mph83%29.77 "Hg10 mi
11:30 PM
Tue, Jun 28
70 °FClear.3 mph83%29.77 "Hg10 mi
11:00 PM70 °FClear.3 mph83%29.77 "Hg10 mi
10:30 PM70 °FClear.3 mph88%29.77 "Hg10 mi
10:00 PM72 °FClear.3 mph78%29.77 "Hg10 mi
Weather by CustomWeather, © 2016

See weather overviewHow to use our weather pages